| time (UTC) | temp F | wind direction | speed MPH | gust MPH | rain 1hr in | rain 24hr in | rain mn in | humidity % | barometer mb |
| 20260505050604 | 54 | 329 | 1.0 | 3.0 | 0.00 | 0.00 | 0.00 | 75 | 1015.6 |
| 20260505050104 | 54 | 295 | 1.0 | 3.0 | 0.00 | 0.00 | 0.00 | 74 | 1015.6 |
| 20260505041605 | 54 | 333 | 1.0 | 3.0 | 0.00 | 0.00 | 0.00 | 73 | 1015.5 |
| 20260505041106 | 54 | 353 | 1.0 | 3.0 | 0.00 | 0.00 | 0.00 | 73 | 1015.5 |
| 20260505040104 | 54 | 196 | 1.0 | 3.0 | 0.00 | 0.00 | 0.00 | 71 | 1015.4 |
| 20260505035606 | 54 | 303 | 1.0 | 3.0 | 0.00 | 0.00 | 0.00 | 71 | 1015.3 |
| 20260505035104 | 55 | 284 | 1.0 | 3.0 | 0.00 | 0.00 | 0.00 | 71 | 1015.1 |
| 20260505034604 | 55 | 248 | 1.0 | 3.0 | 0.00 | 0.00 | 0.00 | 71 | 1015.1 |
| 20260505034104 | 55 | 270 | 1.0 | 3.0 | 0.00 | 0.00 | 0.00 | 71 | 1015.1 |
| 20260505033604 | 55 | 258 | 1.0 | 3.0 | 0.00 | 0.00 | 0.00 | 71 | 1015.1 |
| 20260505033104 | 55 | 306 | 2.0 | 5.0 | 0.00 | 0.00 | 0.00 | 70 | 1015.0 |
| 20260505032604 | 56 | 274 | 1.0 | 7.0 | 0.00 | 0.00 | 0.00 | 69 | 1015.0 |
| 20260505031603 | 56 | 296 | 2.0 | 7.0 | 0.00 | 0.00 | 0.00 | 68 | 1015.0 |
| 20260505031106 | 56 | 262 | 1.0 | 3.0 | 0.00 | 0.00 | 0.00 | 68 | 1014.9 |
| 20260505030606 | 56 | 302 | 1.0 | 3.0 | 0.00 | 0.00 | 0.00 | 67 | 1014.8 |
| 20260505030104 | 57 | 333 | 1.0 | 3.0 | 0.00 | 0.00 | 0.00 | 66 | 1014.7 |
| 20260505025604 | 57 | 287 | 1.0 | 6.0 | 0.00 | 0.00 | 0.00 | 64 | 1014.7 |
| 20260505024104 | 57 | 275 | 3.0 | 6.0 | 0.00 | 0.00 | 0.00 | 63 | 1014.6 |
| 20260505023604 | 57 | 278 | 3.0 | 7.0 | 0.00 | 0.00 | 0.00 | 63 | 1014.7 |
| 20260505023104 | 57 | 284 | 3.0 | 9.0 | 0.00 | 0.00 | 0.00 | 62 | 1014.6 |
| 20260505022604 | 57 | 272 | 4.0 | 9.0 | 0.00 | 0.00 | 0.00 | 62 | 1014.6 |
| 20260505022104 | 57 | 267 | 5.0 | 9.0 | 0.00 | 0.00 | 0.00 | 62 | 1014.6 |
| 20260505021604 | 57 | 290 | 3.0 | 8.0 | 0.00 | 0.00 | 0.00 | 61 | 1014.6 |
| 20260505021106 | 57 | 280 | 3.0 | 8.0 | 0.00 | 0.00 | 0.00 | 61 | 1014.6 |
| 20260505020604 | 58 | 287 | 3.0 | 8.0 | 0.00 | 0.00 | 0.00 | 60 | 1014.6 |
| 20260505020104 | 58 | 299 | 4.0 | 10.0 | 0.00 | 0.00 | 0.00 | 59 | 1014.6 |
| 20260505015604 | 58 | 273 | 5.0 | 10.0 | 0.00 | 0.00 | 0.00 | 58 | 1014.6 |
| 20260505015104 | 58 | 304 | 5.0 | 12.0 | 0.00 | 0.00 | 0.00 | 58 | 1014.5 |
| 20260505014604 | 59 | 281 | 5.0 | 12.0 | 0.00 | 0.00 | 0.00 | 57 | 1014.4 |
| 20260505014104 | 59 | 281 | 6.0 | 12.0 | 0.00 | 0.00 | 0.00 | 57 | 1014.5 |
| 20260505013103 | 60 | 300 | 7.0 | 15.0 | 0.00 | 0.00 | 0.00 | 55 | 1014.5 |
| 20260505012104 | 62 | 295 | 9.0 | 17.0 | 0.00 | 0.00 | 0.00 | 50 | 1014.4 |
| 20260505011107 | 61 | 293 | 2.0 | 5.0 | 0.00 | 0.00 | 0.00 | 50 | 1014.5 |
| 20260505010604 | 61 | 273 | 2.0 | 7.0 | 0.00 | 0.00 | 0.00 | 50 | 1014.5 |
| 20260505005603 | 61 | 275 | 3.0 | 6.0 | 0.00 | 0.00 | 0.00 | 48 | 1014.6 |
| 20260505005104 | 61 | 260 | 2.0 | 5.0 | 0.00 | 0.00 | 0.00 | 47 | 1014.5 |
| 20260505004603 | 61 | 325 | 2.0 | 6.0 | 0.00 | 0.00 | 0.00 | 48 | 1014.5 |
| 20260505004103 | 61 | 329 | 1.0 | 6.0 | 0.00 | 0.00 | 0.00 | 47 | 1014.5 |
| 20260505003604 | 61 | 265 | 3.0 | 6.0 | 0.00 | 0.00 | 0.00 | 47 | 1014.5 |
| 20260505003104 | 61 | 266 | 3.0 | 6.0 | 0.00 | 0.00 | 0.00 | 45 | 1014.5 |
| 20260505002604 | 61 | 251 | 3.0 | 6.0 | 0.00 | 0.00 | 0.00 | 44 | 1014.6 |
| 20260505002104 | 61 | 257 | 3.0 | 6.0 | 0.00 | 0.00 | 0.00 | 45 | 1014.6 |
| 20260505001604 | 61 | 277 | 2.0 | 5.0 | 0.00 | 0.00 | 0.00 | 47 | 1014.6 |
| 20260505001106 | 61 | 264 | 2.0 | 5.0 | 0.00 | 0.00 | 0.00 | 46 | 1014.7 |
| 20260505000104 | 61 | 277 | 5.0 | 8.0 | 0.00 | 0.00 | 0.00 | 46 | 1014.6 |
| 20260504235605 | 61 | 275 | 5.0 | 7.0 | 0.00 | 0.00 | 0.00 | 47 | 1014.6 |
| 20260504234604 | 61 | 284 | 2.0 | 7.0 | 0.00 | 0.00 | 0.00 | 49 | 1014.6 |
| 20260504234104 | 61 | 279 | 3.0 | 6.0 | 0.00 | 0.00 | 0.00 | 47 | 1014.6 |
| 20260504233603 | 61 | 299 | 1.0 | 3.0 | 0.00 | 0.00 | 0.00 | 47 | 1014.6 |
| 20260504232604 | 61 | 284 | 3.0 | 8.0 | 0.00 | 0.00 | 0.00 | 47 | 1014.6 |
| 20260504232103 | 61 | 316 | 4.0 | 9.0 | 0.00 | 0.00 | 0.00 | 49 | 1014.6 |
| 20260504231604 | 61 | 280 | 4.0 | 12.0 | 0.00 | 0.00 | 0.00 | 48 | 1014.6 |
| 20260504231106 | 61 | 274 | 6.0 | 12.0 | 0.00 | 0.00 | 0.00 | 48 | 1014.6 |
| 20260504230603 | 61 | 294 | 5.0 | 8.0 | 0.00 | 0.00 | 0.00 | 48 | 1014.6 |
| 20260504230104 | 61 | 288 | 3.0 | 10.0 | 0.00 | 0.00 | 0.00 | 47 | 1014.4 |
| 20260504225604 | 61 | 277 | 6.0 | 10.0 | 0.00 | 0.00 | 0.00 | 47 | 1014.6 |
| 20260504225104 | 62 | 265 | 7.0 | 10.0 | 0.00 | 0.00 | 0.00 | 47 | 1014.7 |
| 20260504224604 | 62 | 324 | 3.0 | 6.0 | 0.00 | 0.00 | 0.00 | 48 | 1014.7 |
| 20260504224104 | 61 | 259 | 2.0 | 6.0 | 0.00 | 0.00 | 0.00 | 49 | 1014.7 |
| 20260504223604 | 61 | 289 | 1.0 | 9.0 | 0.00 | 0.00 | 0.00 | 48 | 1015.0 |
| 20260504223105 | 61 | 321 | 3.0 | 9.0 | 0.00 | 0.00 | 0.00 | 49 | 1014.9 |
| 20260504222104 | 61 | 297 | 6.0 | 10.0 | 0.00 | 0.00 | 0.00 | 49 | 1015.1 |
| 20260504221604 | 61 | 296 | 3.0 | 8.0 | 0.00 | 0.00 | 0.00 | 49 | 1015.0 |
| 20260504220604 | 61 | 267 | 3.0 | 6.0 | 0.00 | 0.00 | 0.00 | 49 | 1015.2 |
| 20260504220104 | 61 | 289 | 3.0 | 9.0 | 0.00 | 0.00 | 0.00 | 50 | 1015.1 |
| 20260504215604 | 61 | 290 | 5.0 | 9.0 | 0.00 | 0.00 | 0.00 | 50 | 1015.4 |
| 20260504214104 | 61 | 285 | 2.0 | 7.0 | 0.00 | 0.00 | 0.00 | 50 | 1015.4 |
| 20260504213604 | 61 | 246 | 2.0 | 8.0 | 0.00 | 0.00 | 0.00 | 50 | 1015.6 |
| 20260504213104 | 61 | 169 | 2.0 | 8.0 | 0.00 | 0.00 | 0.00 | 51 | 1015.6 |
| 20260504212604 | 61 | 264 | 3.0 | 9.0 | 0.00 | 0.00 | 0.00 | 50 | 1015.8 |
| 20260504211604 | 60 | 250 | 3.0 | 8.0 | 0.00 | 0.00 | 0.00 | 51 | 1015.7 |
| 20260504211104 | 60 | 278 | 2.0 | 9.0 | 0.00 | 0.00 | 0.00 | 53 | 1015.8 |
| 20260504210105 | 60 | 268 | 5.0 | 9.0 | 0.00 | 0.00 | 0.00 | 53 | 1015.9 |
| 20260504205604 | 60 | 286 | 5.0 | 12.0 | 0.00 | 0.00 | 0.00 | 52 | 1016.1 |
| 20260504205104 | 60 | 269 | 6.0 | 12.0 | 0.00 | 0.00 | 0.00 | 52 | 1016.1 |
| 20260504204604 | 60 | 288 | 5.0 | 12.0 | 0.00 | 0.00 | 0.00 | 52 | 1016.1 |
| 20260504204105 | 60 | 266 | 1.0 | 5.0 | 0.00 | 0.00 | 0.00 | 54 | 1016.0 |
| 20260504203604 | 60 | 265 | 3.0 | 6.0 | 0.00 | 0.00 | 0.00 | 53 | 1015.8 |
| 20260504203104 | 60 | 232 | 3.0 | 6.0 | 0.00 | 0.00 | 0.00 | 53 | 1016.1 |
| 20260504202604 | 60 | 357 | 1.0 | 3.0 | 0.00 | 0.00 | 0.00 | 54 | 1016.2 |
| 20260504202104 | 59 | 352 | 1.0 | 5.0 | 0.00 | 0.00 | 0.00 | 54 | 1016.2 |
| 20260504201606 | 59 | 253 | 3.0 | 5.0 | 0.00 | 0.00 | 0.00 | 54 | 1016.2 |
| 20260504200607 | 59 | 250 | 1.0 | 5.0 | 0.00 | 0.00 | 0.00 | 54 | 1016.2 |
| 20260504200105 | 59 | 251 | 4.0 | 5.0 | 0.00 | 0.00 | 0.00 | 53 | 1016.3 |
| 20260504195604 | 60 | 292 | 1.0 | 5.0 | 0.00 | 0.00 | 0.00 | 54 | 1016.3 |
| 20260504195105 | 59 | 319 | 1.0 | 5.0 | 0.00 | 0.00 | 0.00 | 53 | 1016.3 |
| 20260504193604 | 59 | 0 | 3.0 | 5.0 | 0.00 | 0.00 | 0.00 | 56 | 1016.3 |
| 20260504192604 | 58 | 270 | 1.0 | 6.0 | 0.00 | 0.00 | 0.00 | 58 | 1016.3 |
| 20260504192104 | 58 | 234 | 3.0 | 6.0 | 0.00 | 0.00 | 0.00 | 58 | 1016.7 |
| 20260504191605 | 58 | 295 | 3.0 | 6.0 | 0.00 | 0.00 | 0.00 | 58 | 1016.5 |
| 20260504191104 | 58 | 305 | 2.0 | 9.0 | 0.00 | 0.00 | 0.00 | 58 | 1016.7 |
| 20260504190604 | 58 | 357 | 3.0 | 9.0 | 0.00 | 0.00 | 0.00 | 58 | 1016.8 |
| 20260504190104 | 58 | 289 | 5.0 | 9.0 | 0.00 | 0.00 | 0.00 | 58 | 1016.8 |
| 20260504185604 | 58 | 257 | 3.0 | 7.0 | 0.00 | 0.00 | 0.00 | 58 | 1016.6 |
| 20260504185104 | 57 | 270 | 1.0 | 10.0 | 0.00 | 0.00 | 0.00 | 58 | 1016.5 |
| 20260504184604 | 57 | 292 | 3.0 | 10.0 | 0.00 | 0.00 | 0.00 | 58 | 1016.6 |
| 20260504184104 | 57 | 296 | 4.0 | 10.0 | 0.00 | 0.00 | 0.00 | 56 | 1016.7 |
| 20260504183604 | 57 | 278 | 2.0 | 9.0 | 0.00 | 0.00 | 0.00 | 56 | 1016.6 |
| 20260504182604 | 58 | 271 | 5.0 | 10.0 | 0.00 | 0.00 | 0.00 | 56 | 1016.8 |
| 20260504182104 | 58 | 296 | 6.0 | 10.0 | 0.00 | 0.00 | 0.00 | 55 | 1016.8 |
| 20260504181605 | 58 | 297 | 5.0 | 8.0 | 0.00 | 0.00 | 0.00 | 55 | 1016.8 |
| 20260504181104 | 58 | 272 | 4.0 | 7.0 | 0.00 | 0.00 | 0.00 | 56 | 1016.7 |
| 20260504180606 | 57 | 285 | 2.0 | 5.0 | 0.00 | 0.00 | 0.00 | 57 | 1016.7 |
| 20260504175104 | 57 | 269 | 3.0 | 8.0 | 0.00 | 0.00 | 0.00 | 57 | 1016.5 |
| 20260504174604 | 57 | 273 | 3.0 | 9.0 | 0.00 | 0.00 | 0.00 | 55 | 1016.3 |
| 20260504174104 | 57 | 271 | 5.0 | 9.0 | 0.00 | 0.00 | 0.00 | 56 | 1016.3 |
| 20260504173603 | 57 | 318 | 5.0 | 8.0 | 0.00 | 0.00 | 0.00 | 58 | 1016.3 |
| 20260504172604 | 57 | 175 | 1.0 | 3.0 | 0.00 | 0.00 | 0.00 | 66 | 1016.2 |
| 20260504172104 | 56 | 279 | 0.0 | 3.0 | 0.00 | 0.00 | 0.00 | 67 | 1016.3 |
| 20260504171104 | 55 | 272 | 1.0 | 3.0 | 0.00 | 0.00 | 0.00 | 68 | 1016.2 |
| 20260504170605 | 55 | 263 | 1.0 | 3.0 | 0.00 | 0.00 | 0.00 | 69 | 1016.2 |
| 20260504170105 | 55 | 254 | 0.0 | 1.0 | 0.00 | 0.00 | 0.00 | 70 | 1016.2 |
| 20260504160104 | 54 | 305 | 2.0 | 3.0 | 0.00 | 0.00 | 0.00 | 72 | 1015.9 |
| 20260504151105 | 53 | 327 | 1.0 | 5.0 | 0.00 | 0.00 | 0.00 | 77 | 1015.6 |
| 20260504150603 | 52 | 288 | 0.0 | 2.0 | 0.00 | 0.00 | 0.00 | 79 | 1015.6 |
| 20260504150104 | 52 | 298 | 1.0 | 2.0 | 0.00 | 0.00 | 0.00 | 80 | 1015.7 |
| 20260504141104 | 51 | 306 | 0.0 | 2.0 | 0.00 | 0.00 | 0.00 | 84 | 1015.5 |
| 20260504140606 | 51 | 290 | 0.0 | 2.0 | 0.00 | 0.00 | 0.00 | 84 | 1015.5 |
| 20260504140104 | 51 | 280 | 0.0 | 1.0 | 0.00 | 0.00 | 0.00 | 85 | 1015.5 |
| 20260504130607 | 52 | 278 | 1.0 | 3.0 | 0.00 | 0.00 | 0.00 | 83 | 1015.1 |
| 20260504130104 | 52 | 263 | 1.0 | 2.0 | 0.00 | 0.00 | 0.00 | 83 | 1015.2 |
| 20260504120104 | 52 | 178 | 0.0 | 1.0 | 0.00 | 0.01 | 0.00 | 79 | 1014.7 |
| 20260504110604 | 52 | 218 | 0.0 | 1.0 | 0.00 | 0.01 | 0.00 | 78 | 1014.8 |
| 20260504110104 | 52 | 235 | 0.0 | 1.0 | 0.00 | 0.01 | 0.00 | 78 | 1014.8 |
| 20260504100607 | 53 | 184 | 0.0 | 1.0 | 0.00 | 0.01 | 0.00 | 76 | 1014.4 |
| 20260504100105 | 53 | 184 | 0.0 | 1.0 | 0.00 | 0.01 | 0.00 | 76 | 1014.4 |
| 20260504090104 | 54 | 184 | 0.0 | 1.0 | 0.00 | 0.01 | 0.00 | 76 | 1014.6 |
| 20260504081104 | 54 | 171 | 0.0 | 1.0 | 0.00 | 0.01 | 0.00 | 73 | 1015.7 |
| 20260504080606 | 54 | 171 | 0.0 | 1.0 | 0.00 | 0.01 | 0.00 | 73 | 1016.1 |
| 20260504080104 | 54 | 171 | 0.0 | 1.0 | 0.00 | 0.01 | 0.00 | 74 | 1016.3 |
| 20260504070104 | 54 | 194 | 0.0 | 2.0 | 0.00 | 0.01 | 0.00 | 75 | 1015.7 |
| 20260504060104 | 54 | 194 | 0.0 | 1.0 | 0.00 | 0.01 | 0.01 | 73 | 1014.6 |